Regional Weather Roundup
Issued by NWS

Home | Current Version | Previous Version | Graphics & Text | Print | Product List | Glossary On
Versions: 1 2 3 4 5 6 7 8 9 10 11 12 13 14 15 16 17 18 19 20 21 22 23 24 25 26 27 28 29 30 31 32 33 34 35 36 37 38 39 40 41 42 43 44 45 46 47 48 49 50
000
ASUS43 KDMX 241007
RWRIA

WEATHER ROUNDUP FOR IOWA
NATIONAL WEATHER SERVICE DES MOINES IA
400 AM CST WED DEC 24 2014

NOTE: "FAIR" INDICATES FEW OR NO CLOUDS BELOW 12,000 FEET WITH NO
SIGNIFICANT WEATHER AND/OR OBSTRUCTIONS TO VISIBILITY.

* - THESE STATIONS ARE NOT NWS STATIONS...THUS NOT UNDER NWS
QUALITY CONTROL.  THEY ALSO DO NOT REPORT WEATHER SUCH
AS PRECIPITATION OR FOG.

IAZ001>003-012>014-020>022-031>034-043>046-241100-
   NORTHWEST IOWA

CITY           SKY/WX    TMP DP  RH WIND       PRES   REMARKS
CARROLL *      CLOUDY    34  32  93 N17G23    29.83S WCI  23
CHEROKEE *     CLOUDY    32  32 100 NW10G16   29.87R WCI  24
DENISON *      CLOUDY    34  34 100 N16       29.84S WCI  23
LE MARS *      CLOUDY    32  32 100 NW16      29.90F WCI  21
ORANGE CITY *  CLOUDY    34  30  86 NW14G20   29.88S WCI  24
SHELDON *      CLOUDY    32  32 100 NW20      29.86S WCI  20
SIOUX CITY     CLOUDY    33  30  88 NW23      29.89F WCI  21
SPENCER        CLOUDY    32  29  88 N17       29.85S WCI  21
STORM LAKE *   CLOUDY    32  30  93 NW18      29.84S WCI  20
$$

IAZ055>058-069>071-079>083-090>094-241100-
   SOUTHWEST IOWA

CITY           SKY/WX    TMP DP  RH WIND       PRES   REMARKS
ATLANTIC *     CLOUDY    34  34 100 N14       29.83S WCI  24
AUDUBON *      CLEAR     34  28  80 N12G17    29.84S WCI  25
CLARINDA *     CLOUDY    36  34  93 N15G25    29.85S WCI  26
COUNCIL BLFS * LGT SNOW  32  32 100 NW20      29.85S WCI  20
CRESTON *      LGT SNOW  34  34 100 N15       29.79F WCI  24
HARLAN  *      CLOUDY    34  34 100 N17       29.88S WCI  23
LAMONI         LGT SNOW  33  32  96 N12       29.76F FOG     WCI  24
RED OAK *      CLOUDY    36  32  87 N13G21    29.85F WCI  27
SHENANDOAH *   CLOUDY    36  34  93 NW13      29.87S WCI  27
$$

IAZ047>049-059>061-072>074-084-241100-
   CENTRAL IOWA

CITY           SKY/WX    TMP DP  RH WIND       PRES   REMARKS
AMES           CLOUDY    34  31  88 N15       29.78F WCI  24
ANKENY *       FLURRIES  34  34 100 NW12      29.78F WCI  25
CHARITON *     LGT SNOW  34  32  93 NW13      29.75F VSB 1   WCI  25
DES MOINES     LGT SNOW  34  32  92 N10       29.78F FOG     WCI  26
GRINNELL*      LGT SNOW  32  32 100 NW9       29.73F WCI  24
KNOXVILLE *    LGT SNOW  32  32 100 NW12      29.73F WCI  23
MARSHALLTOWN   CLOUDY    33  31  92 N15       29.74F WCI  23
PELLA *        RAIN      32  32 100 NW8       29.76F WCI  25
PERRY *        CLOUDY    34  34 100 N13       29.81S WCI  25
$$

IAZ004>006-015-016-023>025-035-036-241100-
   NORTH CENTRAL IOWA

CITY           SKY/WX    TMP DP  RH WIND       PRES   REMARKS
ALGONA *       CLOUDY    34  34 100 N15G24    29.81S WCI  24
CLARION *      CLOUDY    34  34 100 N8        29.79F WCI  27
ESTHERVILLE    CLOUDY    31  30  96 N17       29.83S WCI  19
FORT DODGE *   CLOUDY    34  30  86 N7        29.81F WCI  28
MASON CITY     CLOUDY    33  32  96 N12       29.79S WCI  24
FOREST CITY *  CLOUDY    34  32  93 N13       29.79S WCI  25
IOWA FALLS *   CLOUDY    34  32  93 N14       29.77F WCI  24
$$

IAZ007>011-017>019-026>030-037>042-050>054-066-241100-
   NORTHEAST IOWA

CITY           SKY/WX    TMP DP  RH WIND       PRES   REMARKS
CEDAR RAPIDS   CLOUDY    34  34 100 NW9       29.70F FOG     WCI  27
CHARLES CITY * CLOUDY    34  32  93 N13       29.75F WCI  25
CLINTON *      CLOUDY    36  32  87 NW6       29.71F WCI  31
DECORAH *      CLOUDY    34  32  93 N12       29.70F WCI  25
DUBUQUE        FOG       33  33 100 N9        29.67F VSB 1/2 WCI  25
MONTICELLO *   CLOUDY    34  34 100 NW8       29.69F WCI  27
OELWEIN *      CLOUDY    34  32  93 N10       29.72F WCI  26
WATERLOO       LGT RAIN  33  32  96 NW12      29.73F WCI  24
$$

IAZ064-065-067-068-078-241100-
   EAST CENTRAL IOWA

CITY           SKY/WX    TMP DP  RH WIND       PRES   REMARKS
DAVENPORT      CLOUDY    35  32  88 NW8       29.69F WCI  29
IOWA CITY      CLOUDY    35  33  92 NW8       29.72F WCI  29
MT. PLEASANT * CLOUDY    34  34 100 NW7       29.71F WCI  28
MUSCATINE *    CLOUDY    37  34  87 N5        29.71F WCI  34
QUAD CITIES    CLOUDY    36  33  89 NW9       29.68F WCI  29
$$

IAZ062-063-075>077-085>089-095>099-241100-
   SOUTHEAST IOWA

CITY           SKY/WX    TMP DP  RH WIND       PRES   REMARKS
BURLINGTON     CLOUDY    36  34  92 NW7       29.70F WCI  30
FAIRFIELD *    CLOUDY    36  32  87 NW12      29.71F WCI  27
FORT MADISON * CLOUDY    37  36  93 NW7       29.71F WCI  32
KEOKUK *       CLOUDY    37  34  87 NW7       29.70F WCI  32
OSKALOOSA *    CLOUDY    34  32  93 NW13      29.73F WCI  25
CENTERVILLE *  MIX PCPN  34  34 100 NW12      29.74F WCI  25
OTTUMWA        CLOUDY    34  33  96 NW14      29.72F WCI  25
WASHINGTON *   CLOUDY    36  36 100 N12       29.70F WCI  27
$$

ABBREVIATIONS USED IN REMARKS
   TC - TEMPERATURES IN CELSIUS
  WCI - WIND CHILL INDEX
   HX - HEAT INDEX
  VSB - VISIBILITY
$$



USA.gov is the U.S. government's official web portal to all federal, state and local government web resources and services.